STARLINK-32652, 62234

Orbit data source: Space-Track

STARLINK-32652, 62234 is a payload satellite owned by SpaceX/Seattle (US) in LEO that was launched on Thu, 05 Dec 2024 UTC via an FALCON 9 launch vehicle from the Air Force Western Test Range (AFWTR). Payload-class satellites include a variety of spacecraft equipped with specific instruments for various scientific and technological missions. These include communications satellites like Starlink; space stations such as the ISS; scientific satellites like the Hubble; Earth observation satellites from companies like Planet Labs, Umbra, and HawkEye 360; GPS; miniature CubeSats for education and research; and military/defense satellites.

Loading next visibility...
Identifier
62234, 2024-231S
Orbit
LEO
Country
Flag of USUS
Related business
Manufacturer
SpaceX/Seattle
Mission
Operational spacecraft
Bus & Motor
STARLINK V2M, Unknown motor
Mass
730 kg wet, ~700 kg dry
Launch date (UTC)
2024-12-05 (1 year ago)
Launch vehicle
FALCON 9
Launch site
Air Force Western Test Range (AFWTR)
Object type
Payload
Rocket body
Debris
Shape & HBR
Unknown shape, 17.7 m
Radar Cross Section
Large (>1 m²)

Expand to show TLE details & history
Last TLE update: 9 hours ago

TLE from 9 hours ago
0 STARLINK-32652
1 62234U 24231S   26036.32772719  .00055346  00000-0  18638-2 0  9995
2 62234  53.1616   9.9416 0001579 104.0349 256.0828 15.30253025 66800
Epoch: 2026-02-05T07:51Z
TLE epoch observation values (Epoch: 2026-02-05T07:51:55.629Z)
Latitude
0.00004°
Longitude
116.4783°
Altitude
476.217 km
Speed
7.629 km/s
True Right ascension
00h 39m 45s
True Declination
0° 00' 00"
Sunlit
Object was in daylight at epoch
Visualization orbit readout
Latitude
Unknown
Longitude
Unknown
Altitude
Unknown
Speed
Unknown
Apparent Right ascension
Unknown
Apparent Declination
Unknown
Sunlit
N/A
Visualization observer readout
Local Sidereal Time
19:06:41
Azimuth
Unknown
Elevation
Unknown
Doppler factor
Unknown
Orbital elements
Apogee altitude
476.395 km
Perigee altitude
474.231 km
Semi-major axis
6,853.45 km
Eccentricity
0.00016
Inclination
53.1616°
RAAN
9.9416°
Arg. of periapsis
104.0349°
True anomaly
256.06524°
Mean anomaly
256.0828°
Eccentric anomaly
256.07402°
Mean motion
3.82542 °/min
Orbital period
94.11 mins
BSTAR
0.0018638
Loading maneuver chart data...
Computing Atmospheric mass density...
Loading historical data...
Loading historical data...
Loading historical data...
Loading historical data...
Loading historical data...
Loading historical data...
Loading historical data...

Documentation

Showing up to 5 results
|